Regional Weather Roundup
Issued by NWS

Home | Current Version | Previous Version | Text Only | Print | Product List | Glossary On
Versions: 1 2 3 4 5 6 7 8 9 10 11 12 13 14 15 16 17 18 19 20 21 22 23 24 25 26 27 28 29 30 31 32 33 34 35 36 37 38 39 40 41 42 43 44 45 46 47 48 49 50
000
ASUS43 KLSX 052307
RWRMO

WEATHER SUMMARY FOR MISSOURI
NATIONAL WEATHER SERVICE SPRINGFIELD MO
500 PM CST THU MAR 05 2015

NOTE: "FAIR" INDICATES FEW OR NO CLOUDS BELOW 12,000 FEET WITH NO
       SIGNIFICANT WEATHER AND/OR OBSTRUCTIONS TO VISIBILITY.
       CURRENT SKY AND/OR WEATHER CONDITIONS ARE NOT AVAILABLE FOR
       CHILLICOTHE AND FARMINGTON.

MOZ001>031-035>038-043-044-053-054-060000-
...NORTHERN AND WESTERN MISSOURI...

CITY           SKY/WX    TMP DP  RH WIND       PRES   REMARKS
KANSAS CTY INT SUNNY     31   4  31 VRB3      30.48S
KANSAS C DTWN  SUNNY     33   3  28 E6        30.49F WCI  28
LEE`S SUMMIT   SUNNY     32   3  29 CALM      30.49S
ST JOSEPH      SUNNY     30   4  33 S3        30.50S
CHILLICOTHE      N/A     29   5  36 SW6       30.52S WCI  23
KIRKSVILLE     SUNNY     26   2  35 NW5       30.51S WCI  20

$$
MOZ066>068-077>081-088>096-101>105-060000-
...SOUTHWEST MISSOURI...

CITY           SKY/WX    TMP DP  RH WIND       PRES   REMARKS
SPRINGFIELD    SUNNY     33  10  38 NW3       30.49R
JOPLIN         SUNNY     35  14  42 NW6       30.51S

$$
MOZ032>034-039>042-045>050-055>058-069>072-060000-
...CENTRAL MISSOURI...

CITY           SKY/WX    TMP DP  RH WIND       PRES   REMARKS
COLUMBIA       SUNNY     28   8  43 N7        30.51S WCI  21
JEFFERSON CITY SUNNY     29   6  38 W5        30.55S WCI  24
ROLLA          SUNNY     28   7  41 N12       30.48S WCI  18
SEDALIA        SUNNY     29   8  41 CALM      30.53S
WHITEMAN AFB   SUNNY     29   5  36 NE5       30.51S WCI  24
WARRENSBURG    SUNNY     32   5  32 CALM      30.51S
OSAGE BEACH    SUNNY     30   9  40 CALM      30.52R

$$
MOZ051-052-059>065-060000-
...EAST CENTRAL MISSOURI...

CITY           SKY/WX    TMP DP  RH WIND       PRES   REMARKS
ST LOUIS INTL  SUNNY     24   6  46 N9        30.56R WCI  14
SPIRIT OF STL  SUNNY     25   6  44 NW8       30.55R WCI  16
ST CHARLES     SUNNY     23   6  48 N6        30.57R WCI  16

$$
MOZ072>076-082>087-097>100-106>115-060000-
...SOUTH CENTRAL AND SOUTHEAST MISSOURI...

CITY           SKY/WX    TMP DP  RH WIND       PRES   REMARKS
CAPE GIRARDEAU SUNNY     24   8  50 NE12      30.55R WCI  13
FARMINGTON     SUNNY     27   9  46 N9        30.53R WCI  17
POPLAR BLUFF   SUNNY     25  12  58 SE7       30.54R WCI  17
WEST PLAINS    SUNNY     30   5  34 N9        30.49R WCI  22

$$


USA.gov is the U.S. government's official web portal to all federal, state and local government web resources and services.